Time,TemperatureF,DewpointF,PressureIn,WindDirection,WindDirectionDegrees,WindSpeedMPH,WindSpeedGustMPH,Humidity,HourlyPrecipIn,Conditions,Clouds,dailyrainin,SolarRadiationWatts/m^2,SoftwareType,DateUTC
2013-03-09 00:10:00,37.4,28.2,30.30,West,261,1.0,1.0,69,0.00,,,0.00,0,Wunderground v.1.15,2013-03-09 05:10:00,
2013-03-09 00:20:00,37.1,27.9,30.29,West,261,0.0,0.0,69,0.00,,,0.00,0,Wunderground v.1.15,2013-03-09 05:20:00,
2013-03-09 00:30:00,36.8,27.6,30.29,West,261,0.0,0.0,69,0.00,,,0.00,0,Wunderground v.1.15,2013-03-09 05:30:00,
2013-03-09 00:40:00,36.6,27.7,30.29,West,261,0.0,0.0,70,0.00,,,0.00,0,Wunderground v.1.15,2013-03-09 05:40:00,
2013-03-09 00:50:00,36.6,27.7,30.30,West,273,0.0,0.0,70,0.00,,,0.00,0,Wunderground v.1.15,2013-03-09 05:50:00,
2013-03-09 01:00:00,36.5,27.6,30.30,WNW,297,0.0,0.0,70,0.00,,,0.00,0,Wunderground v.1.15,2013-03-09 06:00:00,
2013-03-09 01:10:00,36.2,27.4,30.31,WNW,296,1.0,2.0,70,0.00,,,0.00,0,Wunderground v.1.15,2013-03-09 06:10:00,
2013-03-09 01:20:00,36.2,27.4,30.31,WNW,296,1.0,1.0,70,0.00,,,0.00,0,Wunderground v.1.15,2013-03-09 06:20:00,
2013-03-09 01:30:00,35.8,27.0,30.31,WNW,296,0.0,0.0,70,0.00,,,0.00,0,Wunderground v.1.15,2013-03-09 06:30:00,
2013-03-09 01:40:00,35.2,26.7,30.31,WNW,296,0.0,0.0,71,0.00,,,0.00,0,Wunderground v.1.15,2013-03-09 06:40:00,
2013-03-09 01:50:00,35.2,27.1,30.31,WNW,296,0.0,0.0,72,0.00,,,0.00,0,Wunderground v.1.15,2013-03-09 06:50:00,
2013-03-09 02:00:00,35.3,27.2,30.31,WNW,296,0.0,0.0,72,0.00,,,0.00,0,Wunderground v.1.15,2013-03-09 07:00:00,
2013-03-09 02:10:00,35.5,27.0,30.31,WNW,296,0.0,0.0,71,0.00,,,0.00,0,Wunderground v.1.15,2013-03-09 07:10:00,
2013-03-09 02:20:00,35.5,27.0,30.31,WNW,296,0.0,0.0,71,0.00,,,0.00,0,Wunderground v.1.15,2013-03-09 07:20:00,
2013-03-09 02:30:00,35.3,26.8,30.31,WNW,296,0.0,0.0,71,0.00,,,0.00,0,Wunderground v.1.15,2013-03-09 07:30:00,
2013-03-09 02:40:00,35.2,26.7,30.31,WNW,296,0.0,0.0,71,0.00,,,0.00,0,Wunderground v.1.15,2013-03-09 07:40:00,
2013-03-09 02:50:00,35.0,26.5,30.30,WNW,296,0.0,0.0,71,0.00,,,0.00,0,Wunderground v.1.15,2013-03-09 07:50:00,
2013-03-09 03:00:00,34.9,26.4,30.30,WNW,296,0.0,1.0,71,0.00,,,0.00,0,Wunderground v.1.15,2013-03-09 08:00:00,
2013-03-09 03:10:00,34.8,26.4,30.30,WNW,296,0.0,0.0,71,0.00,,,0.00,0,Wunderground v.1.15,2013-03-09 08:10:00,
2013-03-09 03:20:00,34.7,26.3,30.29,WNW,296,0.0,0.0,71,0.00,,,0.00,0,Wunderground v.1.15,2013-03-09 08:20:00,
2013-03-09 03:30:00,34.5,26.1,30.30,WNW,296,0.0,0.0,71,0.00,,,0.00,0,Wunderground v.1.15,2013-03-09 08:30:00,
2013-03-09 03:40:00,34.4,26.0,30.29,WNW,296,0.0,0.0,71,0.00,,,0.00,0,Wunderground v.1.15,2013-03-09 08:40:00,
2013-03-09 03:50:00,34.3,25.9,30.29,WNW,296,0.0,0.0,71,0.00,,,0.00,0,Wunderground v.1.15,2013-03-09 08:50:00,
2013-03-09 04:00:00,33.9,25.5,30.29,WNW,296,0.0,0.0,71,0.00,,,0.00,0,Wunderground v.1.15,2013-03-09 09:00:00,
2013-03-09 04:10:00,33.4,25.3,30.30,WNW,296,0.0,0.0,72,0.00,,,0.00,0,Wunderground v.1.15,2013-03-09 09:10:00,
2013-03-09 04:20:00,33.1,25.4,30.30,WNW,296,0.0,0.0,73,0.00,,,0.00,0,Wunderground v.1.15,2013-03-09 09:20:00,
2013-03-09 04:30:00,33.0,25.6,30.30,WNW,296,0.0,0.0,74,0.00,,,0.00,0,Wunderground v.1.15,2013-03-09 09:30:00,
2013-03-09 04:40:00,33.1,25.7,30.30,WNW,296,0.0,0.0,74,0.00,,,0.00,0,Wunderground v.1.15,2013-03-09 09:40:00,
2013-03-09 04:50:00,33.2,25.8,30.31,WNW,296,0.0,0.0,74,0.00,,,0.00,0,Wunderground v.1.15,2013-03-09 09:50:00,
2013-03-09 05:00:00,33.1,25.4,30.31,WNW,296,0.0,0.0,73,0.00,,,0.00,0,Wunderground v.1.15,2013-03-09 10:00:00,
2013-03-09 05:10:00,32.9,25.2,30.31,WNW,296,0.0,0.0,73,0.00,,,0.00,0,Wunderground v.1.15,2013-03-09 10:10:00,
2013-03-09 05:20:00,32.7,25.3,30.32,WNW,296,0.0,0.0,74,0.00,,,0.00,0,Wunderground v.1.15,2013-03-09 10:20:00,
2013-03-09 05:30:00,32.4,25.0,30.32,WNW,296,0.0,0.0,74,0.00,,,0.00,0,Wunderground v.1.15,2013-03-09 10:30:00,
2013-03-09 05:40:00,32.1,24.7,30.32,WNW,296,0.0,0.0,74,0.00,,,0.00,0,Wunderground v.1.15,2013-03-09 10:40:00,
2013-03-09 05:50:00,31.8,24.5,30.32,WNW,296,0.0,0.0,74,0.00,,,0.00,0,Wunderground v.1.15,2013-03-09 10:50:00,
2013-03-09 06:00:00,31.4,24.1,30.32,WNW,296,0.0,0.0,74,0.00,,,0.00,0,Wunderground v.1.15,2013-03-09 11:00:00,
2013-03-09 06:10:00,30.9,23.3,30.32,WNW,296,0.0,0.0,73,0.00,,,0.00,0,Wunderground v.1.15,2013-03-09 11:10:00,
2013-03-09 06:20:00,30.5,23.2,30.32,WNW,296,0.0,0.0,74,0.00,,,0.00,0,Wunderground v.1.15,2013-03-09 11:20:00,
2013-03-09 06:30:00,30.1,23.1,30.33,WNW,296,0.0,0.0,75,0.00,,,0.00,0,Wunderground v.1.15,2013-03-09 11:30:00,
2013-03-09 06:40:00,29.7,22.7,30.33,WNW,296,0.0,0.0,75,0.00,,,0.00,9,Wunderground v.1.15,2013-03-09 11:40:00,
2013-03-09 06:50:00,29.3,22.4,30.33,WNW,296,0.0,0.0,75,0.00,,,0.00,18,Wunderground v.1.15,2013-03-09 11:50:00,
2013-03-09 07:00:00,29.2,23.8,30.33,WNW,296,0.0,0.0,80,0.00,,,0.00,35,Wunderground v.1.15,2013-03-09 12:00:00,
2013-03-09 07:10:00,29.5,24.4,30.33,WNW,296,0.0,0.0,81,0.00,,,0.00,56,Wunderground v.1.15,2013-03-09 12:10:00,
2013-03-09 07:20:00,29.9,25.1,30.34,WNW,296,0.0,0.0,82,0.00,,,0.00,88,Wunderground v.1.15,2013-03-09 12:20:00,
2013-03-09 07:30:00,31.2,26.6,30.34,WNW,296,0.0,0.0,83,0.00,,,0.00,120,Wunderground v.1.15,2013-03-09 12:30:00,
2013-03-09 07:40:00,32.7,27.2,30.34,WNW,296,0.0,0.0,80,0.00,,,0.00,158,Wunderground v.1.15,2013-03-09 12:40:00,
2013-03-09 07:50:00,33.9,27.4,30.34,WNW,296,0.0,0.0,77,0.00,,,0.00,199,Wunderground v.1.15,2013-03-09 12:50:00,
2013-03-09 08:00:00,35.6,27.5,30.34,WNW,296,0.0,0.0,72,0.00,,,0.00,236,Wunderground v.1.15,2013-03-09 13:00:00,
2013-03-09 08:10:00,37.3,27.7,30.34,WNW,296,0.0,0.0,68,0.00,,,0.00,269,Wunderground v.1.15,2013-03-09 13:10:00,
2013-03-09 08:20:00,38.5,28.1,30.36,WNW,296,0.0,0.0,66,0.00,,,0.00,302,Wunderground v.1.15,2013-03-09 13:20:00,
2013-03-09 08:30:00,39.2,27.7,30.36,NNW,340,1.0,2.0,63,0.00,,,0.00,336,Wunderground v.1.15,2013-03-09 13:30:00,
2013-03-09 08:40:00,39.8,27.4,30.36,NNW,329,3.0,3.0,61,0.00,,,0.00,367,Wunderground v.1.15,2013-03-09 13:40:00,
2013-03-09 08:50:00,40.5,27.3,30.36,NW,320,2.0,3.0,59,0.00,,,0.00,399,Wunderground v.1.15,2013-03-09 13:50:00,
2013-03-09 09:00:00,41.3,28.0,30.36,NNW,335,1.0,5.0,59,0.00,,,0.00,431,Wunderground v.1.15,2013-03-09 14:00:00,
2013-03-09 09:10:00,41.4,27.7,30.36,NNW,329,3.0,3.0,58,0.00,,,0.00,459,Wunderground v.1.15,2013-03-09 14:10:00,
2013-03-09 09:20:00,42.2,28.0,30.37,NNW,330,2.0,2.0,57,0.00,,,0.00,487,Wunderground v.1.15,2013-03-09 14:20:00,
2013-03-09 09:30:00,42.5,27.0,30.36,NNW,329,2.0,2.0,54,0.00,,,0.00,519,Wunderground v.1.15,2013-03-09 14:30:00,
2013-03-09 09:40:00,43.0,27.5,30.36,NW,322,2.0,2.0,54,0.00,,,0.00,541,Wunderground v.1.15,2013-03-09 14:40:00,
2013-03-09 09:50:00,43.5,28.4,30.36,NNW,330,2.0,3.0,55,0.00,,,0.00,568,Wunderground v.1.15,2013-03-09 14:50:00,
2013-03-09 10:00:00,44.6,28.0,30.36,NNW,337,2.0,2.0,52,0.00,,,0.00,592,Wunderground v.1.15,2013-03-09 15:00:00,
2013-03-09 10:10:00,45.0,27.9,30.35,NNW,343,2.0,2.0,51,0.00,,,0.00,615,Wunderground v.1.15,2013-03-09 15:10:00,
2013-03-09 10:20:00,45.0,27.5,30.35,NNW,341,3.0,3.0,50,0.00,,,0.00,638,Wunderground v.1.15,2013-03-09 15:20:00,
2013-03-09 10:30:00,45.0,27.5,30.35,NNW,333,2.0,4.0,50,0.00,,,0.00,659,Wunderground v.1.15,2013-03-09 15:30:00,
2013-03-09 10:40:00,45.5,27.9,30.34,NNE,17,2.0,3.0,50,0.00,,,0.00,679,Wunderground v.1.15,2013-03-09 15:40:00,
2013-03-09 10:50:00,45.7,28.1,30.34,NNE,15,2.0,2.0,50,0.00,,,0.00,691,Wunderground v.1.15,2013-03-09 15:50:00,
2013-03-09 11:00:00,46.2,28.6,30.34,WSW,240,1.0,1.0,50,0.00,,,0.00,708,Wunderground v.1.15,2013-03-09 16:00:00,
2013-03-09 11:10:00,46.8,28.1,30.34,NNE,22,1.0,4.0,48,0.00,,,0.00,722,Wunderground v.1.15,2013-03-09 16:10:00,
2013-03-09 11:20:00,47.7,27.9,30.33,NW,316,2.0,2.0,46,0.00,,,0.00,735,Wunderground v.1.15,2013-03-09 16:20:00,
2013-03-09 11:30:00,48.1,28.3,30.33,WNW,296,3.0,3.0,46,0.00,,,0.00,749,Wunderground v.1.15,2013-03-09 16:30:00,
2013-03-09 11:40:00,48.3,29.0,30.33,WSW,257,1.0,3.0,47,0.00,,,0.00,680,Wunderground v.1.15,2013-03-09 16:40:00,
2013-03-09 11:50:00,49.2,28.2,30.33,NW,310,2.0,2.0,44,0.00,,,0.00,135,Wunderground v.1.15,2013-03-09 16:50:00,
2013-03-09 12:00:00,49.9,28.8,30.33,WSW,253,2.0,2.0,44,0.00,,,0.00,62,Wunderground v.1.15,2013-03-09 17:00:00,
2013-03-09 12:10:00,49.9,29.9,30.32,NW,319,2.0,2.0,46,0.00,,,0.00,323,Wunderground v.1.15,2013-03-09 17:10:00,
2013-03-09 12:20:00,50.0,29.5,30.32,ESE,108,2.0,2.0,45,0.00,,,0.00,51,Wunderground v.1.15,2013-03-09 17:20:00,
2013-03-09 12:30:00,50.7,30.1,30.32,SW,232,1.0,4.0,45,0.00,,,0.00,49,Wunderground v.1.15,2013-03-09 17:30:00,
2013-03-09 12:40:00,51.4,30.2,30.31,NW,318,2.0,2.0,44,0.00,,,0.00,49,Wunderground v.1.15,2013-03-09 17:40:00,
2013-03-09 12:50:00,52.0,30.7,30.30,WSW,250,2.0,6.0,44,0.00,,,0.00,49,Wunderground v.1.15,2013-03-09 17:50:00,
2013-03-09 13:00:00,52.3,29.3,30.30,NNW,340,2.0,2.0,41,0.00,,,0.00,51,Wunderground v.1.15,2013-03-09 18:00:00,
2013-03-09 13:10:00,52.3,28.7,30.29,North,360,1.0,1.0,40,0.00,,,0.00,60,Wunderground v.1.15,2013-03-09 18:10:00,
2013-03-09 13:20:00,52.3,28.7,30.28,SSE,165,1.0,1.0,40,0.00,,,0.00,102,Wunderground v.1.15,2013-03-09 18:20:00,
2013-03-09 13:30:00,53.0,29.9,30.27,NNE,18,1.0,1.0,41,0.00,,,0.00,601,Wunderground v.1.15,2013-03-09 18:30:00,
2013-03-09 13:40:00,53.7,29.9,30.27,NE,51,2.0,2.0,40,0.00,,,0.00,272,Wunderground v.1.15,2013-03-09 18:40:00,
2013-03-09 13:50:00,54.1,29.7,30.27,NNW,333,1.0,1.0,39,0.00,,,0.00,612,Wunderground v.1.15,2013-03-09 18:50:00,
2013-03-09 14:00:00,54.2,27.8,30.27,WSW,247,0.0,0.0,36,0.00,,,0.00,687,Wunderground v.1.15,2013-03-09 19:00:00,
2013-03-09 14:10:00,55.0,28.5,30.27,North,350,1.0,1.0,36,0.00,,,0.00,668,Wunderground v.1.15,2013-03-09 19:10:00,
2013-03-09 14:20:00,54.9,29.1,30.26,NNW,336,1.0,1.0,37,0.00,,,0.00,650,Wunderground v.1.15,2013-03-09 19:20:00,
2013-03-09 14:30:00,55.6,26.2,30.26,NNW,338,2.0,2.0,32,0.00,,,0.00,633,Wunderground v.1.15,2013-03-09 19:30:00,
2013-03-09 14:40:00,55.7,27.7,30.26,ENE,67,1.0,2.0,34,0.00,,,0.00,601,Wunderground v.1.15,2013-03-09 19:40:00,
2013-03-09 14:50:00,55.9,27.9,30.26,NNW,331,1.0,1.0,34,0.00,,,0.00,239,Wunderground v.1.15,2013-03-09 19:50:00,
2013-03-09 15:00:00,57.3,28.4,30.26,NNW,338,1.0,1.0,33,0.00,,,0.00,278,Wunderground v.1.15,2013-03-09 20:00:00,
2013-03-09 15:10:00,56.8,26.5,30.26,NNE,30,1.0,1.0,31,0.00,,,0.00,422,Wunderground v.1.15,2013-03-09 20:10:00,
2013-03-09 15:20:00,57.1,28.2,30.26,NE,35,0.0,0.0,33,0.00,,,0.00,510,Wunderground v.1.15,2013-03-09 20:20:00,
2013-03-09 15:30:00,57.9,27.4,30.25,NNW,327,1.0,1.0,31,0.00,,,0.00,483,Wunderground v.1.15,2013-03-09 20:30:00,
2013-03-09 15:40:00,57.5,24.6,30.25,NNE,15,1.0,1.0,28,0.00,,,0.00,454,Wunderground v.1.15,2013-03-09 20:40:00,
2013-03-09 15:50:00,58.7,25.6,30.25,SW,219,0.0,0.0,28,0.00,,,0.00,413,Wunderground v.1.15,2013-03-09 20:50:00,
2013-03-09 16:00:00,59.0,26.8,30.25,SW,228,1.0,2.0,29,0.00,,,0.00,381,Wunderground v.1.15,2013-03-09 21:00:00,
2013-03-09 16:10:00,58.2,26.9,30.24,NNW,342,1.0,1.0,30,0.00,,,0.00,362,Wunderground v.1.15,2013-03-09 21:10:00,
2013-03-09 16:20:00,58.6,25.6,30.25,NE,44,1.0,3.0,28,0.00,,,0.00,330,Wunderground v.1.15,2013-03-09 21:20:00,
2013-03-09 16:30:00,58.2,24.3,30.25,NNW,343,0.0,0.0,27,0.00,,,0.00,299,Wunderground v.1.15,2013-03-09 21:30:00,
2013-03-09 16:40:00,57.9,25.8,30.24,NNW,343,0.0,0.0,29,0.00,,,0.00,264,Wunderground v.1.15,2013-03-09 21:40:00,
2013-03-09 16:50:00,57.5,24.6,30.24,NNW,343,0.0,0.0,28,0.00,,,0.00,225,Wunderground v.1.15,2013-03-09 21:50:00,
2013-03-09 17:00:00,57.1,25.1,30.24,NNW,343,0.0,0.0,29,0.00,,,0.00,121,Wunderground v.1.15,2013-03-09 22:00:00,
2013-03-09 17:10:00,56.7,26.4,30.24,NNE,22,0.0,0.0,31,0.00,,,0.00,113,Wunderground v.1.15,2013-03-09 22:10:00,
2013-03-09 17:20:00,56.3,27.5,30.24,NE,46,0.0,0.0,33,0.00,,,0.00,97,Wunderground v.1.15,2013-03-09 22:20:00,
2013-03-09 17:30:00,55.8,27.1,30.24,NE,46,0.0,0.0,33,0.00,,,0.00,56,Wunderground v.1.15,2013-03-09 22:30:00,
2013-03-09 17:40:00,55.5,26.1,30.24,NE,46,0.0,0.0,32,0.00,,,0.00,40,Wunderground v.1.15,2013-03-09 22:40:00,
2013-03-09 17:50:00,55.1,25.7,30.25,NE,46,0.0,0.0,32,0.00,,,0.00,23,Wunderground v.1.15,2013-03-09 22:50:00,
2013-03-09 18:00:00,54.2,24.9,30.25,NE,46,0.0,0.0,32,0.00,,,0.00,11,Wunderground v.1.15,2013-03-09 23:00:00,
2013-03-09 18:10:00,53.1,24.0,30.25,NE,46,0.0,0.0,32,0.00,,,0.00,0,Wunderground v.1.15,2013-03-09 23:10:00,
2013-03-09 18:20:00,51.2,25.1,30.25,NE,46,0.0,0.0,36,0.00,,,0.00,0,Wunderground v.1.15,2013-03-09 23:20:00,
2013-03-09 18:30:00,50.1,23.5,30.25,NE,46,0.0,0.0,35,0.00,,,0.00,0,Wunderground v.1.15,2013-03-09 23:30:00,
2013-03-09 18:40:00,49.5,22.9,30.25,NE,46,0.0,0.0,35,0.00,,,0.00,0,Wunderground v.1.15,2013-03-09 23:40:00,
2013-03-09 18:50:00,46.9,22.6,30.25,NE,46,0.0,0.0,38,0.00,,,0.00,0,Wunderground v.1.15,2013-03-09 23:50:00,
2013-03-09 19:00:00,46.4,23.9,30.25,NE,46,0.0,0.0,41,0.00,,,0.00,0,Wunderground v.1.15,2013-03-10 00:00:00,
2013-03-09 19:10:00,45.8,22.8,30.25,NE,46,0.0,0.0,40,0.00,,,0.00,0,Wunderground v.1.15,2013-03-10 00:10:00,
2013-03-09 19:20:00,45.8,23.4,30.25,NE,46,0.0,0.0,41,0.00,,,0.00,0,Wunderground v.1.15,2013-03-10 00:20:00,
2013-03-09 19:30:00,45.5,23.7,30.26,NE,46,0.0,0.0,42,0.00,,,0.00,0,Wunderground v.1.15,2013-03-10 00:30:00,
2013-03-09 19:40:00,45.0,24.9,30.26,NE,46,0.0,0.0,45,0.00,,,0.00,0,Wunderground v.1.15,2013-03-10 00:40:00,
2013-03-09 19:50:00,44.4,24.4,30.26,NE,46,0.0,0.0,45,0.00,,,0.00,0,Wunderground v.1.15,2013-03-10 00:50:00,
2013-03-09 20:00:00,44.1,24.6,30.26,NE,46,0.0,0.0,46,0.00,,,0.00,0,Wunderground v.1.15,2013-03-10 01:00:00,
2013-03-09 20:10:00,41.3,25.0,30.26,NE,46,0.0,0.0,52,0.00,,,0.00,0,Wunderground v.1.15,2013-03-10 01:10:00,
2013-03-09 20:20:00,42.3,24.5,30.26,NE,46,0.0,0.0,49,0.00,,,0.00,0,Wunderground v.1.15,2013-03-10 01:20:00,
2013-03-09 20:30:00,42.4,24.6,30.26,NE,46,0.0,0.0,49,0.00,,,0.00,0,Wunderground v.1.15,2013-03-10 01:30:00,
2013-03-09 20:40:00,42.4,24.6,30.26,NE,46,0.0,0.0,49,0.00,,,0.00,0,Wunderground v.1.15,2013-03-10 01:40:00,
2013-03-09 20:50:00,41.3,24.5,30.27,NE,46,0.0,0.0,51,0.00,,,0.00,0,Wunderground v.1.15,2013-03-10 01:50:00,
2013-03-09 21:00:00,40.2,24.9,30.27,NE,46,0.0,0.0,54,0.00,,,0.00,0,Wunderground v.1.15,2013-03-10 02:00:00,
2013-03-09 21:10:00,40.6,24.8,30.27,NE,46,0.0,0.0,53,0.00,,,0.00,0,Wunderground v.1.15,2013-03-10 02:10:00,
2013-03-09 21:20:00,39.4,25.0,30.27,NE,46,0.0,0.0,56,0.00,,,0.00,0,Wunderground v.1.15,2013-03-10 02:20:00,
2013-03-09 21:30:00,39.1,25.6,30.27,NE,46,0.0,0.0,58,0.00,,,0.00,0,Wunderground v.1.15,2013-03-10 02:30:00,
2013-03-09 21:40:00,37.0,25.6,30.27,NE,46,0.0,0.0,63,0.00,,,0.00,0,Wunderground v.1.15,2013-03-10 02:40:00,
2013-03-09 21:50:00,37.7,25.1,30.27,NE,46,0.0,0.0,60,0.00,,,0.00,0,Wunderground v.1.15,2013-03-10 02:50:00,
2013-03-09 22:00:00,37.8,25.1,30.27,NE,46,0.0,0.0,60,0.00,,,0.00,0,Wunderground v.1.15,2013-03-10 03:00:00,
2013-03-09 22:10:00,37.6,25.7,30.28,NE,46,0.0,0.0,62,0.00,,,0.00,0,Wunderground v.1.15,2013-03-10 03:10:00,
2013-03-09 22:20:00,37.2,25.8,30.28,NE,46,0.0,0.0,63,0.00,,,0.00,0,Wunderground v.1.15,2013-03-10 03:20:00,
2013-03-09 22:30:00,37.3,25.5,30.28,NE,46,0.0,0.0,62,0.00,,,0.00,0,Wunderground v.1.15,2013-03-10 03:30:00,
2013-03-09 22:40:00,36.9,25.9,30.27,NE,46,0.0,0.0,64,0.00,,,0.00,0,Wunderground v.1.15,2013-03-10 03:40:00,
2013-03-09 22:50:00,37.1,25.7,30.27,NE,46,0.0,0.0,63,0.00,,,0.00,0,Wunderground v.1.15,2013-03-10 03:50:00,
2013-03-09 23:00:00,34.8,25.0,30.27,NE,46,0.0,0.0,67,0.00,,,0.00,0,Wunderground v.1.15,2013-03-10 04:00:00,
2013-03-09 23:10:00,34.2,25.1,30.27,NE,46,0.0,0.0,69,0.00,,,0.00,0,Wunderground v.1.15,2013-03-10 04:10:00,
2013-03-09 23:20:00,34.4,24.9,30.27,NE,46,0.0,0.0,68,0.00,,,0.00,0,Wunderground v.1.15,2013-03-10 04:20:00,
2013-03-09 23:30:00,34.3,25.5,30.27,NE,46,0.0,0.0,70,0.00,,,0.00,0,Wunderground v.1.15,2013-03-10 04:30:00,
2013-03-09 23:40:00,34.5,25.0,30.27,NE,46,0.0,0.0,68,0.00,,,0.00,0,Wunderground v.1.15,2013-03-10 04:40:00,
2013-03-09 23:50:00,33.1,24.7,30.27,NE,46,0.0,0.0,71,0.00,,,0.00,0,Wunderground v.1.15,2013-03-10 04:50:00,